{"data":{"norad_id":57105,"epoch":"2026-09-20T11:58:51.070080Z","epoch_age_seconds":121000,"freshness":"FRESH","line1":"1 57105U 23090E   26263.49920220  .00001248  00000+0  54879-4 0  9990","line2":"2 57105  43.0010 261.5759 0000868 279.4379  80.6375 15.27561091180124","mean_motion":15.27561091,"eccentricity":8.68e-5,"inclination_deg":43.001,"raan_deg":261.5759,"arg_perigee_deg":279.4379,"mean_anomaly_deg":80.6375,"bstar":5.4879e-5,"rev_number":18012,"period_min":94.267915599848,"perigee_km":482.51016110436,"apogee_km":483.70127284003,"semimajor_km":6861.2427169722,"source":"CELESTRAK","updated_at":"2026-09-21T09:00:33.558620Z"}}